ROMMA est une association bénévole à but non lucratif. Votre soutien est indispensable : ADHERER à ROMMA ou FAIRE un DON

Crest - (26, Drôme)

Vallée de la Drôme (315 m)   Longitude: 5°2' E   Latitude: 44°44' N Station partenaire n°62
 

Détail journalier du     <<     >>

Température Precipitation Humidité Pression Vent Dir Rafale Dir. rafale Ensol.
Heure (°C) (mm) (%) (hPa) (km/h) (km/h) (min)
01:00 1.6083102227SO47SO0
02:00 1.4082102325SO44SO0
03:00 1.1083102325SO45SSO0
04:00 0.9083102322SO39SO0
05:00 0.8084102321SO35SO0
06:00 0.6085102318SO31SSO0
07:00 0.6085102417SO32SO0
08:00 0.7085102415SO27SSO0
09:00 0.9084102513SO24SSO0
10:00 1.2083102512SO24SO0
11:00 1.7082102513SSO27ENE0
12:00 1.9080102513SO24SO0
13:00 2.1079102413SO29SO0
14:00 2.3078102414SO32SO0
15:00 2.6078102313SO26SO0
16:00 2.7078102313SO24SO0
17:00 2.7078102313SO27SO0
18:00 2.7079102410SO26SO0
19:00 2.6079102411SO26SO0
20:00 2.4080102411SO21NNE0
21:00 2.208110238SO26NNO0
22:00 2.108210237SO16SSO0
23:00 2.108310234SO10SO0
minuit 1.808410235SSO13E0

Graphique du 03-12-2019

 

Serveur OMMA